Wind_Speed
14 14 15 15 15 16 16 16 16 16 16 15 14 14 14 13 12 11 10 9 7 5 4 3 4 6 9 10 12 13 15 17 19 19 21 22 23 24 25 25 26 26 26
15 15 15 15 16 16 16 16 16 17 16 16 15 14 14 13 12 11 10 9 8 6 5 4 5 7 8 9 11 12 14 15 17 18 20 21 23 24 24 24 25 25 25
16 16 16 16 17 17 17 17 17 17 17 16 16 15 14 13 12 12 11 10 9 8 6 6 6 7 9 10 11 12 13 14 16 17 18 19 21 23 23 24 24 24 25
17 17 17 17 18 18 19 19 19 18 18 17 17 16 15 14 13 13 12 11 10 9 8 7 7 8 9 10 11 12 13 14 15 16 17 18 18 21 22 23 23 24 25
18 19 19 19 19 19 20 20 20 20 20 19 18 18 17 16 15 14 14 13 12 11 10 10 9 9 9 10 11 12 14 14 15 17 17 18 18 19 21 23 24 25 26
20 21 21 21 22 22 21 22 22 22 21 21 20 20 19 19 18 17 16 15 14 13 12 12 11 11 11 11 12 13 14 15 16 17 18 19 20 19 21 22 24 24 25
23 23 24 24 24 25 24 24 24 24 24 24 23 23 22 21 21 20 19 18 17 16 15 14 14 13 14 14 13 14 15 16 17 17 18 19 20 21 21 22 23 24 24
26 26 27 27 27 28 28 28 27 27 26 26 26 26 25 24 23 23 22 21 20 19 18 17 17 16 16 16 16 16 16 16 17 18 18 19 20 21 21 21 22 23 23
29 29 30 30 31 31 31 31 30 30 30 29 29 29 28 28 27 26 25 24 24 23 22 21 20 19 19 19 19 18 18 18 18 18 18 19 20 20 21 22 22 22 22
32 33 33 34 34 34 34 34 34 33 33 33 32 32 31 31 31 30 29 28 27 26 25 24 23 22 21 21 21 21 21 20 20 20 20 20 20 21 21 22 22 22 22
36 37 37 38 38 38 38 38 38 37 37 36 36 36 35 34 34 33 33 32 31 30 29 28 27 26 25 24 23 23 23 22 22 21 21 20 20 21 21 21 21 21 21
40 41 41 42 42 43 43 42 42 41 41 40 40 39 39 38 38 37 36 36 35 34 32 31 30 30 29 27 26 25 25 24 24 23 23 22 22 22 21 21 21 21 22
44 45 46 46 47 47 47 47 47 46 45 45 44 43 43 42 42 41 40 39 39 38 36 35 34 33 32 31 29 28 27 26 26 25 25 24 23 23 23 22 22 22 22
48 49 49 50 50 50 50 50 50 49 49 48 48 48 47 46 45 45 44 43 43 42 40 39 38 37 36 35 33 31 30 29 28 28 27 27 26 25 24 24 24 24 24
52 53 53 52 52 53 53 53 52 51 51 51 51 51 51 49 49 49 48 47 46 45 44 43 42 40 40 38 37 35 34 32 31 31 30 29 28 27 27 26 25 25 26
54 54 55 55 55 55 55 54 53 54 53 54 53 53 52 52 52 52 51 51 50 49 48 47 45 43 42 41 40 38 37 36 34 33 32 31 30 29 29 28 27 27 27
57 57 57 57 57 58 57 56 54 54 54 54 54 54 54 53 53 53 53 53 52 52 51 49 47 46 44 43 42 41 39 38 37 36 35 34 33 32 31 30 30 29 29
59 59 59 59 59 59 59 57 55 54 53 52 53 53 54 54 53 53 54 54 54 53 52 50 49 48 47 46 44 43 42 41 39 38 37 36 35 34 33 32 32 31 31
61 61 61 61 61 61 60 58 56 54 53 52 51 52 53 54 54 54 54 55 55 54 53 52 50 49 48 48 46 45 44 43 41 40 39 38 37 36 35 34 33 33 32
63 63 63 63 62 61 59 58 56 54 53 52 51 51 52 53 53 53 53 54 55 55 54 53 52 51 49 49 48 46 45 44 43 42 40 39 38 37 36 35 34 33 33
65 64 63 63 62 60 59 57 56 54 52 51 51 50 51 52 52 53 53 53 54 55 55 54 54 53 51 50 49 48 46 45 44 43 42 41 40 38 37 36 35 34 34
65 64 64 63 62 60 58 57 55 53 52 51 51 50 50 51 52 53 53 54 55 55 56 56 55 54 53 51 50 49 48 46 45 44 43 42 40 39 38 37 36 35 35
65 65 64 63 62 60 58 56 54 53 51 50 49 49 48 49 50 51 52 54 55 55 55 56 56 54 53 52 52 50 49 47 45 44 44 43 41 40 39 38 37 36 35
65 64 64 62 60 58 56 54 51 50 48 47 47 47 47 48 48 49 50 52 54 54 55 56 56 56 54 53 52 51 50 48 46 45 44 43 42 40 39 38 37 36 36
64 63 62 60 57 55 52 50 48 47 46 45 44 45 45 45 45 46 47 50 51 52 52 54 55 55 53 53 53 52 51 49 47 45 43 42 41 40 39 37 36 36 35
62 60 58 56 53 51 50 48 46 45 44 43 43 43 43 43 43 44 45 47 48 49 50 51 53 53 52 52 52 51 51 49 48 46 44 42 42 40 39 37 36 35 35
Wind_Direction
324 323 322 321 322 322 321 322 323 325 326 326 328 333 335 337 340 342 343 344 342 338 316 270 239 227 220 217 215 214 213 215 216 216 217 217 217 218 221 223 224 226 228
322 321 320 320 320 321 320 319 319 320 321 321 321 323 326 327 329 332 333 332 333 327 312 277 254 240 229 223 218 216 216 219 219 219 218 219 220 222 224 225 227 226 227
321 320 319 317 317 317 317 316 315 315 316 316 314 315 317 317 317 319 322 321 320 318 310 287 264 250 239 234 224 221 223 224 222 221 220 221 222 224 225 228 229 229 231
320 319 317 316 314 313 312 312 311 310 310 310 308 307 308 309 308 307 308 308 306 304 299 293 276 259 249 240 230 227 226 227 226 224 224 223 223 226 228 229 231 232 233
319 318 316 314 312 311 310 309 307 306 305 304 303 301 300 299 300 299 297 297 295 293 288 287 279 264 252 244 236 234 232 230 229 228 228 228 229 231 231 232 234 236 237
314 314 313 311 309 308 306 305 304 303 302 300 297 295 294 292 291 290 289 287 286 284 281 278 274 265 254 248 244 240 237 236 235 233 233 233 234 233 234 235 237 238 239
312 310 309 308 307 305 303 301 300 299 298 296 294 291 289 287 285 284 283 281 278 276 274 272 269 265 256 251 248 244 241 240 240 240 239 237 236 236 237 238 240 241 242
310 309 308 306 304 302 300 299 297 295 294 292 290 289 286 283 280 278 278 276 274 271 268 268 267 262 258 254 250 247 246 244 242 242 242 239 238 239 240 241 241 242 243
307 306 305 304 303 301 299 296 295 293 291 289 287 285 283 280 277 275 273 272 270 268 265 264 263 260 257 254 252 250 248 246 244 244 243 242 242 242 243 243 243 243 243
305 304 303 302 301 300 298 296 294 291 289 287 284 282 280 277 275 272 270 269 267 265 263 261 260 258 257 254 252 250 249 247 246 246 246 245 244 243 244 244 244 244 245
304 302 301 300 299 297 296 295 293 290 287 284 282 280 278 276 273 270 268 266 264 262 260 259 257 256 255 254 253 251 249 247 246 246 247 247 246 244 244 245 245 246 247
303 301 299 298 297 296 294 292 291 289 286 282 279 277 276 274 271 268 266 264 262 260 258 257 255 254 254 253 252 251 250 248 247 246 246 247 247 247 246 246 247 248 249
301 300 299 297 296 295 293 291 289 287 284 282 279 275 273 271 269 266 264 262 260 259 257 255 254 253 252 251 251 250 249 248 247 246 246 247 247 248 247 247 248 249 250
302 300 299 298 296 294 293 290 288 285 282 279 277 274 271 269 267 264 262 260 258 257 255 254 253 252 251 250 249 249 249 248 248 247 247 247 248 249 250 250 250 251 253
302 302 300 298 296 295 293 291 288 284 281 278 275 272 269 266 264 262 260 258 257 255 253 252 252 252 251 251 249 248 248 248 248 248 248 248 249 250 251 252 253 253 254
303 302 301 299 298 296 294 291 288 284 280 277 273 270 267 264 261 259 258 256 255 253 252 251 250 250 250 250 250 249 248 247 247 247 248 248 249 250 251 252 254 255 257
304 303 302 301 299 297 295 293 290 285 281 277 273 269 267 264 260 258 256 255 254 252 251 249 248 248 248 248 248 248 248 247 247 247 248 248 249 250 251 253 254 256 258
304 303 302 301 300 298 296 294 290 286 281 277 273 268 266 263 260 257 255 253 252 251 250 249 247 246 247 246 246 247 247 246 246 246 247 248 249 250 251 252 254 256 258
303 302 302 301 300 298 296 293 291 287 282 278 273 268 264 262 259 257 254 252 250 249 248 247 246 245 245 245 244 244 245 246 246 246 246 248 249 250 251 253 254 256 259
303 302 301 300 300 299 296 293 291 288 283 279 274 269 264 262 259 256 253 251 248 247 246 245 244 243 242 243 242 243 244 245 245 245 246 247 248 250 252 253 255 257 260
302 301 300 300 300 299 296 294 292 288 283 278 274 270 265 261 258 254 251 249 247 246 245 244 242 241 240 241 241 241 241 243 244 245 245 246 248 250 251 253 255 257 260
302 301 301 300 300 299 296 294 292 289 283 278 274 270 266 263 259 255 251 248 245 244 243 243 242 240 239 239 239 239 239 240 243 244 245 246 248 249 251 253 255 257 260
301 301 300 300 300 299 297 295 293 290 285 279 275 270 267 264 261 257 252 248 245 244 242 241 240 239 238 237 237 237 237 238 240 242 243 244 246 248 250 253 255 257 259
300 300 300 300 299 298 297 295 293 290 285 280 275 270 267 264 261 257 252 247 244 242 242 239 238 238 238 236 235 235 236 237 238 240 241 243 245 247 249 252 254 256 258
300 300 300 299 299 298 296 294 292 290 286 281 276 272 269 265 261 257 252 247 243 241 240 238 236 235 235 235 234 233 233 235 236 238 240 241 242 244 247 250 252 254 257
300 300 300 300 298 297 296 294 292 290 287 282 277 273 269 265 261 258 253 248 242 239 238 236 234 232 232 233 233 232 231 232 233 235 238 239 241 243 245 248 251 255 257
Height
5830 5828 5826 5824 5822 5820 5818 5816 5814 5812 5810 5807 5805 5802 5800 5798 5796 5794 5792 5790 5789 5787 5787 5786 5786 5786 5786 5787 5788 5789 5791 5793 5795 5798 5800 5803 5806 5809 5812 5815 5818 5820 5823
5828 5826 5824 5822 5820 5818 5816 5814 5812 5810 5808 5806 5804 5801 5799 5797 5795 5793 5792 5790 5789 5787 5786 5786 5785 5785 5786 5786 5787 5788 5790 5791 5793 5795 5797 5800 5803 5805 5808 5811 5813 5816 5818
5825 5823 5821 5820 5818 5816 5814 5812 5810 5808 5806 5804 5802 5800 5798 5796 5794 5793 5791 5789 5788 5787 5786 5785 5784 5784 5784 5785 5785 5786 5788 5789 5790 5792 5794 5796 5799 5801 5804 5806 5808 5811 5813
5823 5821 5819 5817 5815 5813 5811 5809 5807 5805 5803 5801 5800 5798 5796 5794 5793 5791 5790 5788 5787 5786 5785 5784 5783 5782 5782 5783 5783 5784 5785 5786 5788 5789 5791 5793 5795 5797 5799 5801 5804 5806 5808
5820 5817 5815 5813 5811 5809 5808 5806 5804 5802 5800 5798 5797 5795 5793 5792 5790 5789 5788 5786 5785 5784 5783 5782 5781 5780 5780 5781 5781 5782 5782 5784 5785 5786 5788 5789 5791 5793 5794 5796 5798 5800 5802
5816 5814 5812 5809 5807 5805 5803 5801 5800 5798 5796 5794 5793 5791 5790 5789 5787 5786 5785 5783 5782 5781 5781 5780 5779 5779 5778 5778 5779 5779 5779 5780 5781 5783 5784 5785 5786 5788 5789 5791 5793 5795 5797
5812 5809 5807 5805 5803 5800 5798 5796 5794 5793 5791 5789 5788 5786 5785 5784 5783 5782 5780 5780 5779 5778 5777 5777 5776 5776 5775 5775 5775 5776 5776 5777 5778 5778 5779 5780 5781 5783 5784 5785 5787 5789 5790
5806 5804 5801 5799 5797 5795 5792 5790 5788 5787 5785 5784 5782 5781 5779 5778 5777 5776 5775 5774 5774 5773 5773 5772 5772 5772 5772 5772 5772 5772 5772 5773 5773 5774 5775 5775 5776 5777 5778 5780 5781 5782 5784
5800 5797 5795 5792 5790 5787 5785 5783 5781 5780 5778 5776 5775 5774 5772 5771 5770 5769 5768 5768 5768 5768 5767 5767 5767 5767 5767 5767 5767 5767 5767 5768 5768 5769 5770 5770 5771 5772 5773 5774 5775 5777 5778
5792 5789 5786 5784 5782 5779 5777 5775 5773 5771 5769 5768 5767 5765 5764 5763 5763 5762 5761 5760 5760 5760 5761 5761 5761 5761 5761 5761 5761 5762 5762 5763 5763 5764 5764 5765 5766 5766 5767 5768 5769 5771 5772
5782 5779 5776 5774 5771 5769 5767 5765 5763 5761 5759 5758 5757 5755 5754 5753 5753 5752 5752 5752 5752 5752 5752 5753 5754 5754 5754 5754 5755 5756 5756 5757 5757 5758 5758 5759 5760 5761 5761 5762 5763 5765 5766
5771 5768 5765 5762 5759 5757 5754 5752 5750 5748 5747 5745 5744 5744 5743 5742 5742 5741 5741 5741 5742 5742 5743 5744 5745 5746 5746 5747 5747 5748 5749 5750 5750 5751 5752 5753 5754 5755 5756 5756 5757 5758 5760
5759 5755 5752 5748 5745 5742 5740 5737 5735 5733 5732 5731 5730 5730 5729 5729 5729 5729 5729 5729 5730 5731 5732 5733 5735 5736 5737 5738 5739 5740 5741 5742 5743 5744 5745 5746 5747 5749 5749 5750 5751 5752 5753
5745 5741 5737 5733 5729 5726 5723 5721 5718 5716 5714 5713 5713 5713 5713 5714 5714 5714 5714 5715 5716 5718 5719 5721 5723 5724 5726 5728 5729 5731 5732 5733 5735 5736 5738 5739 5740 5741 5742 5743 5744 5745 5746
5730 5725 5721 5717 5713 5709 5705 5702 5699 5697 5695 5694 5694 5694 5695 5696 5697 5697 5698 5700 5701 5703 5705 5707 5710 5712 5714 5716 5719 5720 5722 5724 5726 5727 5729 5730 5732 5733 5735 5736 5737 5738 5739
5714 5709 5704 5699 5695 5690 5686 5683 5680 5677 5675 5673 5673 5673 5674 5676 5677 5678 5680 5682 5684 5687 5689 5692 5696 5699 5701 5704 5707 5709 5711 5713 5715 5717 5719 5721 5723 5724 5726 5727 5729 5730 5731
5698 5692 5687 5682 5676 5672 5667 5663 5660 5657 5654 5652 5651 5652 5653 5655 5656 5658 5660 5663 5666 5669 5672 5676 5681 5684 5687 5690 5693 5696 5699 5702 5704 5707 5709 5711 5713 5715 5717 5718 5720 5721 5722
5680 5675 5669 5663 5658 5653 5648 5643 5639 5636 5634 5632 5631 5631 5632 5633 5635 5638 5640 5643 5647 5651 5655 5660 5664 5668 5672 5676 5679 5683 5686 5689 5692 5695 5698 5700 5703 5705 5707 5709 5710 5712 5713
5662 5656 5650 5644 5639 5633 5628 5623 5619 5615 5613 5612 5612 5612 5612 5613 5615 5618 5620 5624 5628 5633 5638 5642 5647 5651 5656 5660 5664 5669 5672 5676 5680 5683 5686 5689 5691 5694 5696 5698 5700 5701 5703
5644 5638 5631 5625 5619 5613 5608 5603 5599 5595 5593 5591 5591 5591 5592 5593 5595 5598 5600 5604 5609 5614 5619 5624 5629 5634 5639 5644 5649 5653 5658 5662 5666 5670 5674 5677 5680 5682 5685 5687 5689 5691 5692
5625 5619 5612 5606 5600 5594 5588 5584 5579 5576 5573 5572 5571 5571 5571 5572 5575 5578 5581 5584 5589 5594 5600 5605 5611 5617 5622 5627 5633 5638 5643 5648 5653 5657 5661 5664 5667 5671 5673 5676 5678 5680 5681
5606 5600 5594 5587 5581 5575 5570 5565 5560 5557 5554 5553 5552 5552 5552 5552 5554 5557 5561 5564 5569 5574 5580 5586 5592 5599 5605 5611 5617 5622 5628 5633 5639 5644 5648 5652 5655 5658 5661 5664 5667 5669 5670
5587 5581 5574 5568 5562 5557 5551 5546 5542 5538 5535 5533 5532 5532 5532 5533 5534 5537 5540 5544 5549 5554 5560 5567 5574 5581 5587 5594 5600 5606 5613 5619 5625 5630 5634 5638 5642 5646 5649 5652 5655 5657 5659
5568 5561 5555 5549 5543 5538 5533 5528 5524 5520 5517 5514 5513 5513 5513 5513 5515 5517 5520 5524 5529 5535 5541 5548 5555 5563 5570 5576 5584 5591 5598 5604 5610 5616 5621 5625 5630 5634 5637 5640 5643 5645 5647
5549 5542 5536 5530 5525 5519 5515 5510 5506 5503 5499 5497 5495 5495 5494 5495 5496 5498 5501 5505 5510 5515 5521 5528 5536 5545 5552 5560 5568 5575 5583 5589 5596 5602 5607 5612 5617 5621 5625 5628 5631 5633 5635
5531 5525 5518 5513 5508 5503 5498 5494 5490 5487 5483 5481 5479 5478 5478 5478 5479 5481 5484 5488 5492 5498 5504 5511 5519 5527 5536 5544 5552 5559 5567 5575 5582 5588 5594 5599 5604 5609 5613 5616 5619 5622 5624